, TX

(GMT )
Port Isabel

Weather History for KPIL - February, 2012

Change the Weather History Date:

Wednesday, February 1, 2012

  Actual Average Record
Temperature  
Mean Temperature 72 °F -  
Max Temperature 80 °F - - ()
Min Temperature 64 °F - - ()
Cooling Degree Days 7    
Growing Degree Days 22 (Base 50)    
Moisture  
Dew Point 70 °F    
Average Humidity 90    
Maximum Humidity 100    
Minimum Humidity 74    
Precipitation  
Precipitation 0.00 in - - ()
Sea Level Pressure  
Sea Level Pressure 30.05 in    
Wind  
Wind Speed 6 mph (SE)    
Max Wind Speed 16 mph    
Max Gust Speed -    
Visibility 5 miles    
Events Fog    
T = Trace of Precipitation, MM = Missing Value Source: NWS Daily Summary

Daily Weather History Graph

Daily Weather History Graph

Search for Another Location

Airport or City:

Trip Planner

Search our weather history database for the weather conditions in past years. The results will help you decide how hot, cold, wet, or windy it might be!

Date:

Astronomy

Feb. 01, 2012 Rise Set
Actual Time 7:13 AM CST 6:12 PM CST
Civil Twilight 6:49 AM CST 6:36 PM CST
Nautical Twilight 6:22 AM CST 7:04 PM CST
Astronomical Twilight 5:54 AM CST 7:31 PM CST
Moon 12:49 PM CST (2/1) 1:53 AM CST (2/1)
Length of Visible Light 11h 46m
Length of Day
10h 58m
Waxing Gibbous, 65% of the Moon is Illuminated
Feb 1
Waxing Gibbous
Feb 7
Full
Feb 14
Last Quarter
Feb 21
New
Feb 29
First Quarter

Hourly Weather History & Observations

Time (CST) Temp. Heat Index Dew Point Humidity Pressure Visibility Wind Dir Wind Speed Gust Speed Precip Events Conditions
1:53 AM 69.1 °F - 68.0 °F 96% 30.06 in 7.0 mi SSE 4.6 mph - N/A   Clear
2:53 AM 68.0 °F - 66.9 °F 96% 30.05 in 4.0 mi South 3.5 mph - N/A   Clear
3:04 AM 66.2 °F - 66.2 °F 100% 30.05 in 1.8 mi Calm Calm - N/A   Clear
3:10 AM 66.2 °F - 66.2 °F 100% 30.05 in 0.8 mi Calm Calm - N/A   Mist
3:25 AM 66.2 °F - 64.4 °F 94% 30.05 in 0.5 mi Calm Calm - N/A Fog Fog
3:53 AM 64.9 °F - 64.9 °F 100% 30.04 in 0.5 mi Calm Calm - N/A Fog Fog
4:10 AM 66.2 °F - 64.4 °F 94% 30.05 in 0.2 mi SE 5.8 mph - N/A Fog Fog
4:53 AM 68.0 °F - 66.9 °F 96% 30.04 in 0.2 mi ESE 4.6 mph - N/A Fog Fog
5:45 AM 66.2 °F - 66.2 °F 100% 30.04 in 0.5 mi SE 5.8 mph - N/A Fog Fog
5:53 AM 66.9 °F - 66.9 °F 100% 30.04 in 0.5 mi ESE 4.6 mph - N/A Fog Fog
6:34 AM 68.0 °F - 68.0 °F 100% 30.04 in 1.8 mi ESE 3.5 mph - N/A   Overcast
6:48 AM 68.0 °F - 68.0 °F 100% 30.04 in 0.5 mi SE 5.8 mph - N/A Fog Fog
6:53 AM 68.0 °F - 66.9 °F 96% 30.04 in 0.2 mi SE 5.8 mph - N/A Fog Fog
7:03 AM 68.0 °F - 66.2 °F 94% 30.05 in 0.5 mi SE 4.6 mph - N/A Fog Fog
7:21 AM 66.2 °F - 66.2 °F 100% 30.05 in 0.2 mi SE 4.6 mph - N/A Fog Fog
7:53 AM 68.0 °F - 68.0 °F 100% 30.06 in 0.2 mi SE 4.6 mph - N/A Fog Fog
8:44 AM 71.6 °F - 71.6 °F 100% 30.08 in 0.8 mi SE 6.9 mph - N/A   Mist
8:53 AM 71.1 °F - 71.1 °F 100% 30.09 in 1.8 mi SE 6.9 mph - N/A   Overcast
9:03 AM 71.6 °F - 71.6 °F 100% 30.09 in 0.5 mi SE 6.9 mph - N/A Fog Fog
9:10 AM 71.6 °F - 71.6 °F 100% 30.09 in 0.2 mi SSE 8.1 mph - N/A Fog Fog
9:19 AM 71.6 °F - 71.6 °F 100% 30.09 in 0.5 mi SE 6.9 mph - N/A Fog Fog
9:29 AM 71.6 °F - 71.6 °F 100% 30.10 in 1.8 mi SE 8.1 mph - N/A   Overcast
9:34 AM 71.6 °F - 71.6 °F 100% 30.10 in 3.0 mi SE 6.9 mph - N/A   Overcast
11:00 AM 78.8 °F - 71.6 °F 78% 30.09 in 9.0 mi SE 8.1 mph - N/A   Mostly Cloudy
11:11 AM 78.8 °F - 71.6 °F 78% 30.09 in 8.0 mi ESE 8.1 mph - N/A   Mostly Cloudy
11:20 AM 78.8 °F - 71.6 °F 78% 30.08 in 8.0 mi ESE 8.1 mph - N/A   Mostly Cloudy
11:32 AM 75.2 °F - 71.6 °F 89% 30.08 in 8.0 mi ESE 10.4 mph - N/A   Mostly Cloudy
11:53 AM 75.9 °F - 71.1 °F 85% 30.07 in 7.0 mi ESE 10.4 mph - N/A   Overcast
12:53 PM 78.1 °F - 72.0 °F 81% 30.05 in 8.0 mi SE 13.8 mph - N/A   Overcast
1:09 PM 78.8 °F - 71.6 °F 78% 30.04 in 9.0 mi SE 15.0 mph - N/A   Overcast
1:19 PM 78.8 °F - 71.6 °F 78% 30.04 in 9.0 mi SE 11.5 mph - N/A   Mostly Cloudy
1:53 PM 78.1 °F - 71.1 °F 79% 30.03 in 8.0 mi ESE 15.0 mph - N/A   Overcast
2:01 PM 78.8 °F - 71.6 °F 78% 30.03 in 8.0 mi SE 13.8 mph - N/A   Overcast
2:25 PM 78.8 °F - 71.6 °F 78% 30.02 in 8.0 mi SE 16.1 mph - N/A   Mostly Cloudy
3:11 PM 80.6 °F 84.6 °F 71.6 °F 74% 30.02 in 8.0 mi SE 11.5 mph - N/A   Mostly Cloudy
3:30 PM 80.6 °F 84.6 °F 71.6 °F 74% 30.01 in 8.0 mi SE 13.8 mph - N/A   Mostly Cloudy
3:42 PM 78.8 °F - 71.6 °F 78% 30.01 in 8.0 mi SSE 13.8 mph - N/A   Mostly Cloudy
3:53 PM 79.0 °F - 71.1 °F 77% 30.01 in 8.0 mi SSE 16.1 mph - N/A   Scattered Clouds
4:23 PM 78.8 °F - 71.6 °F 78% 30.01 in 8.0 mi SSE 12.7 mph - N/A   Mostly Cloudy
4:30 PM 78.8 °F - 71.6 °F 78% 30.01 in 8.0 mi SE 15.0 mph - N/A   Scattered Clouds
5:53 PM 75.9 °F - 70.0 °F 82% 30.02 in 8.0 mi SSE 9.2 mph - N/A   Overcast
6:53 PM 73.9 °F - 70.0 °F 87% 30.04 in 9.0 mi SE 8.1 mph - N/A   Clear
7:05 PM 73.4 °F - 69.8 °F 88% 30.04 in 8.0 mi ESE 5.8 mph - N/A   Partly Cloudy
7:53 PM 72.0 °F - 70.0 °F 93% 30.06 in 8.0 mi SE 6.9 mph - N/A   Partly Cloudy
8:53 PM 70.0 °F - 69.1 °F 97% 30.08 in 6.0 mi East 3.5 mph - N/A   Clear
9:53 PM 70.0 °F - 68.0 °F 93% 30.07 in 6.0 mi ESE 5.8 mph - N/A   Clear
10:53 PM 71.1 °F - 70.0 °F 96% 30.08 in 6.0 mi SE 5.8 mph - N/A   Mostly Cloudy
11:53 PM 70.0 °F - 69.1 °F 97% 30.07 in 6.0 mi SE 5.8 mph - N/A   Clear